TimeCDT,TemperatureF,Dew PointF,Humidity,Sea Level PressureIn,VisibilityMPH,Wind Direction,Wind SpeedMPH,Gust SpeedMPH,PrecipitationIn,Events,Conditions,WindDirDegrees,DateUTC
12:15 AM,55.0,50.4,84,29.88,10.0,ESE,11.5,-,N/A,,Overcast,110,2013-05-28 05:15:00
12:35 AM,54.9,50.2,84,29.88,10.0,ESE,8.1,-,N/A,,Overcast,110,2013-05-28 05:35:00
12:55 AM,54.9,50.5,85,29.88,10.0,ESE,8.1,-,N/A,,Overcast,110,2013-05-28 05:55:00
1:15 AM,54.7,50.9,87,29.87,10.0,East,8.1,-,N/A,,Overcast,100,2013-05-28 06:15:00
1:35 AM,54.5,50.5,86,29.85,10.0,East,6.9,-,N/A,,Overcast,80,2013-05-28 06:35:00
1:55 AM,54.5,50.5,86,29.84,10.0,East,5.8,-,N/A,,Overcast,80,2013-05-28 06:55:00
2:15 AM,54.3,50.5,87,29.84,10.0,East,6.9,-,N/A,,Overcast,100,2013-05-28 07:15:00
2:35 AM,54.0,50.7,89,29.83,10.0,East,8.1,-,N/A,,Overcast,100,2013-05-28 07:35:00
2:55 AM,54.0,50.7,89,29.81,10.0,East,8.1,-,N/A,,Overcast,100,2013-05-28 07:55:00
3:15 AM,53.8,50.9,90,29.83,10.0,East,8.1,-,N/A,,Overcast,100,2013-05-28 08:15:00
3:35 AM,53.8,51.1,91,29.83,10.0,ESE,5.8,-,N/A,,Overcast,110,2013-05-28 08:35:00
3:55 AM,53.6,51.1,91,29.82,10.0,East,5.8,-,N/A,,Overcast,100,2013-05-28 08:55:00
4:15 AM,53.6,51.3,92,29.81,10.0,East,5.8,-,N/A,,Overcast,90,2013-05-28 09:15:00
4:35 AM,53.6,51.1,91,29.81,10.0,East,4.6,-,N/A,,Overcast,80,2013-05-28 09:35:00
4:55 AM,53.6,51.1,91,29.81,10.0,East,5.8,-,N/A,,Overcast,90,2013-05-28 09:55:00
5:15 AM,53.6,50.9,91,29.81,10.0,East,4.6,-,N/A,,Overcast,100,2013-05-28 10:15:00
5:35 AM,53.6,50.9,91,29.80,10.0,East,5.8,-,N/A,,Overcast,100,2013-05-28 10:35:00
5:55 AM,53.6,50.9,91,29.81,10.0,ESE,4.6,-,N/A,,Overcast,110,2013-05-28 10:55:00
6:15 AM,53.6,50.9,91,29.81,10.0,Calm,Calm,-,N/A,,Overcast,0,2013-05-28 11:15:00
6:35 AM,53.6,50.9,91,29.81,10.0,East,4.6,-,N/A,,Overcast,80,2013-05-28 11:35:00
6:55 AM,53.6,50.9,91,29.79,10.0,East,5.8,-,N/A,,Overcast,80,2013-05-28 11:55:00
7:15 AM,53.6,51.1,91,29.79,10.0,East,8.1,-,N/A,,Overcast,90,2013-05-28 12:15:00
7:35 AM,53.6,51.1,91,29.78,10.0,East,8.1,-,N/A,,Overcast,80,2013-05-28 12:35:00
7:55 AM,53.8,51.3,91,29.78,10.0,East,8.1,-,N/A,,Overcast,100,2013-05-28 12:55:00
8:15 AM,53.6,51.3,92,29.77,10.0,East,10.4,-,N/A,,Overcast,90,2013-05-28 13:15:00
8:35 AM,53.8,51.6,92,29.77,10.0,East,9.2,-,N/A,,Overcast,100,2013-05-28 13:35:00
8:55 AM,54.1,51.8,92,29.77,10.0,East,10.4,-,N/A,,Overcast,90,2013-05-28 13:55:00
9:15 AM,54.9,52.2,91,29.77,10.0,East,9.2,-,N/A,,Overcast,80,2013-05-28 14:15:00
9:35 AM,55.6,52.5,89,29.78,10.0,East,10.4,-,N/A,,Overcast,90,2013-05-28 14:35:00
9:55 AM,55.6,52.3,89,29.78,10.0,East,8.1,-,N/A,,Overcast,90,2013-05-28 14:55:00
10:15 AM,55.6,52.5,89,29.78,10.0,East,9.2,-,N/A,,Overcast,100,2013-05-28 15:15:00
10:35 AM,55.8,52.7,89,29.77,10.0,East,8.1,-,N/A,,Overcast,100,2013-05-28 15:35:00
10:55 AM,56.3,52.9,88,29.77,10.0,East,6.9,-,N/A,,Overcast,100,2013-05-28 15:55:00
11:15 AM,56.7,53.1,88,29.77,10.0,East,6.9,-,N/A,,Overcast,100,2013-05-28 16:15:00
11:35 AM,56.8,53.1,87,29.77,10.0,East,6.9,-,N/A,,Overcast,90,2013-05-28 16:35:00
11:55 AM,56.8,53.6,89,29.77,10.0,ESE,9.2,-,N/A,,Overcast,120,2013-05-28 16:55:00
12:15 PM,57.0,53.8,89,29.77,10.0,ESE,8.1,-,N/A,,Overcast,110,2013-05-28 17:15:00
12:35 PM,57.0,53.6,88,29.77,10.0,SE,5.8,-,N/A,,Overcast,130,2013-05-28 17:35:00
12:55 PM,56.7,54.3,92,29.77,5.0,SE,5.8,-,N/A,Rain,Rain,130,2013-05-28 17:55:00
1:15 PM,56.3,54.3,93,29.78,7.0,SE,3.5,-,N/A,,Overcast,140,2013-05-28 18:15:00
1:35 PM,56.3,54.1,92,29.78,5.0,Calm,Calm,-,N/A,Rain,Rain,0,2013-05-28 18:35:00
1:55 PM,56.3,53.8,91,29.78,10.0,Calm,Calm,-,N/A,Rain,Rain,0,2013-05-28 18:55:00
2:15 PM,56.5,55.0,95,29.78,4.0,Calm,Calm,-,0.01,Rain,Light Rain,0,2013-05-28 19:15:00
2:35 PM,56.8,55.2,94,29.77,7.0,Calm,Calm,-,0.01,Rain,Light Rain,0,2013-05-28 19:35:00
2:55 PM,57.4,55.9,95,29.77,7.0,East,3.5,-,0.01,,Overcast,80,2013-05-28 19:55:00
3:15 PM,58.3,55.8,91,29.77,10.0,ESE,3.5,-,N/A,,Overcast,110,2013-05-28 20:15:00
3:35 PM,58.3,55.4,90,29.78,10.0,Calm,Calm,-,N/A,,Overcast,0,2013-05-28 20:35:00
3:55 PM,58.8,55.6,89,29.78,10.0,ENE,3.5,-,N/A,,Overcast,60,2013-05-28 20:55:00
4:15 PM,59.2,55.8,88,29.78,10.0,ENE,3.5,-,N/A,,Overcast,60,2013-05-28 21:15:00
4:35 PM,58.5,55.0,88,29.78,10.0,SSE,3.5,-,N/A,,Overcast,150,2013-05-28 21:35:00
4:55 PM,58.5,55.8,91,29.78,10.0,SSE,3.5,-,N/A,,Overcast,150,2013-05-28 21:55:00
5:15 PM,58.1,55.4,91,29.78,10.0,SE,3.5,-,N/A,,Overcast,140,2013-05-28 22:15:00
5:35 PM,57.7,55.6,92,29.78,7.0,SSE,5.8,-,N/A,,Overcast,150,2013-05-28 22:35:00
5:55 PM,58.1,55.8,92,29.78,10.0,SSE,4.6,-,N/A,,Overcast,150,2013-05-28 22:55:00
6:15 PM,57.7,55.4,92,29.78,10.0,SSE,4.6,-,N/A,,Overcast,160,2013-05-28 23:15:00
6:35 PM,58.1,55.6,91,29.78,10.0,Calm,Calm,-,N/A,,Overcast,0,2013-05-28 23:35:00
6:55 PM,57.7,55.8,93,29.78,10.0,SE,3.5,-,N/A,,Overcast,140,2013-05-28 23:55:00
7:15 PM,57.9,55.9,93,29.78,10.0,Calm,Calm,-,N/A,,Overcast,0,2013-05-29 00:15:00
7:35 PM,57.6,55.6,93,29.77,10.0,ESE,4.6,-,N/A,,Overcast,120,2013-05-29 00:35:00
7:55 PM,57.4,55.8,94,29.78,10.0,Calm,Calm,-,N/A,,Overcast,0,2013-05-29 00:55:00
8:15 PM,57.6,55.9,94,29.78,10.0,Calm,Calm,-,N/A,,Overcast,0,2013-05-29 01:15:00
8:35 PM,57.6,55.9,94,29.78,10.0,Calm,Calm,-,N/A,,Overcast,0,2013-05-29 01:35:00
8:55 PM,57.4,55.6,94,29.76,7.0,Calm,Calm,-,N/A,,Overcast,0,2013-05-29 01:55:00
9:15 PM,57.2,55.6,94,29.76,10.0,Calm,Calm,-,N/A,,Overcast,0,2013-05-29 02:15:00
9:35 PM,57.0,55.9,96,29.76,7.0,Calm,Calm,-,N/A,,Overcast,0,2013-05-29 02:35:00
9:55 PM,56.8,55.9,97,29.77,5.0,Calm,Calm,-,N/A,,Overcast,0,2013-05-29 02:55:00
10:15 PM,56.7,55.8,97,29.78,7.0,Calm,Calm,-,N/A,,Overcast,0,2013-05-29 03:15:00
10:35 PM,56.7,55.8,97,29.80,7.0,Calm,Calm,-,N/A,,Overcast,0,2013-05-29 03:35:00
10:55 PM,56.7,55.9,97,29.80,5.0,Calm,Calm,-,N/A,,Overcast,0,2013-05-29 03:55:00
11:15 PM,56.7,55.9,97,29.81,5.0,Calm,Calm,-,N/A,,Overcast,0,2013-05-29 04:15:00
11:35 PM,56.7,55.9,97,29.81,5.0,Calm,Calm,-,N/A,,Overcast,0,2013-05-29 04:35:00
11:55 PM,56.8,55.9,97,29.82,5.0,South,3.5,-,N/A,,Overcast,170,2013-05-29 04:55:00